This is the latest recevied weather packets stored in our database for station/object K4ZZR. If no packets are shown the sender has not sent any weather packets the latest 10 day(s).
| Time | Temp. | Humidity | Pressure | Rain* | Wind** | Luminosity | Snow |
|---|---|---|---|---|---|---|---|
| 1777678010 | 27.78° C | 78% | 1009.4 hPa | 0 mm | - | 52 W/m² | - |
| 1777677708 | 27.78° C | 77% | 1009.4 hPa | 0 mm | - | 61 W/m² | - |
| 1777677405 | 27.78° C | 76% | 1009.6 hPa | 0 mm | - | 68 W/m² | - |
| 1777677103 | 27.78° C | 76% | 1009.5 hPa | 0 mm | - | 73 W/m² | - |
| 1777676802 | 27.78° C | 76% | 1009.7 hPa | 0 mm | - | 49 W/m² | - |
| 1777676499 | 27.78° C | 75% | 1009.3 hPa | 0 mm | - | 46 W/m² | - |
| 1777676197 | 27.78° C | 75% | 1009.3 hPa | 0 mm | - | 47 W/m² | - |
| 1777675893 | 27.78° C | 74% | 1009.3 hPa | 0 mm | - | 68 W/m² | - |
| 1777675590 | 28.33° C | 74% | 1009.1 hPa | 0 mm | - | 69 W/m² | - |
| 1777675287 | 28.33° C | 72% | 1009.1 hPa | 0 mm | - | 91 W/m² | - |
| 1777674983 | 28.89° C | 72% | 1009.4 hPa | 0 mm | - | 148 W/m² | - |
| 1777674681 | 28.89° C | 72% | 1008.9 hPa | 0 mm | - | 176 W/m² | - |
| 1777674386 | 28.89° C | 72% | 1009.1 hPa | 0 mm | - | 159 W/m² | - |
| 1777674074 | 28.89° C | 70% | 1008.9 hPa | 0 mm | - | 192 W/m² | - |
| 1777673770 | 28.89° C | 71% | 1009.3 hPa | 0 mm | - | 205 W/m² | - |
| 1777673468 | 28.89° C | 71% | 1009 hPa | 0 mm | - | 221 W/m² | - |
| 1777673165 | 28.89° C | 71% | 1009 hPa | 0 mm | - | 243 W/m² | - |
| 1777672862 | 28.89° C | 72% | 1009.1 hPa | 0 mm | - | 262 W/m² | - |
| 1777672558 | 28.89° C | 72% | 1009 hPa | 0 mm | - | 290 W/m² | - |
| 1777672253 | 28.89° C | 72% | 1009.1 hPa | 0 mm | - | 309 W/m² | - |
| 1777671949 | 28.33° C | 73% | 1009.1 hPa | 0 mm | - | 294 W/m² | - |
| 1777671644 | 28.89° C | 71% | 1009.4 hPa | 0 mm | - | 235 W/m² | - |
| 1777671342 | 28.89° C | 71% | 1009.2 hPa | 0 mm | - | 345 W/m² | - |
| 1777671038 | 28.89° C | 72% | 1009.2 hPa | 0 mm | - | 378 W/m² | - |
| 1777670734 | 28.89° C | 72% | 1008.9 hPa | 0 mm | - | 408 W/m² | - |
* Rain latest hour (hover to see other rain measurements)
** Current wind speed in m/s (hover to see current wind gust speed)